When you browse on this site, cookies collect data to enhance your experience and personalize the content and advertising you see.
Visit our Privacy Policy to learn more. By continuing to use the site, you agree to this use of cookies and data.
  • In Romania
  • List of Countries
  • For 7 days
  • Water Temperature
  • Satellite Maps
  • Weather Map
  • Weather Widgets
  • user-avatar
    Login

    Hourly Weather Schiborovo

    Today, 20 March, Wednesday

    Time Temperature Precipitation Wind Pressure Humidity
    00:00 -1°C° 0 mm 2 mps 747 mmHg 91%
    01:00 -2°C° 0 mm 2 mps 748 mmHg 92%
    02:00 -2°C° 0 mm 2 mps 748 mmHg 94%
    03:00 -2°C° 0 mm 2 mps 748 mmHg 94%
    04:00 -2°C° 0 mm 3 mps 748 mmHg 94%
    05:00 -2°C° 0 mm 3 mps 748 mmHg 94%
    06:00 -1°C° 0 mm 3 mps 749 mmHg 91%
    07:00 -1°C° 0 mm 3 mps 749 mmHg 88%
    08:00 -1°C° 0 mm 4 mps 749 mmHg 85%
    09:00 -1°C° 0 mm 4 mps 750 mmHg 82%
    10:00 0°C° 0 mm 4 mps 750 mmHg 79%
    11:00 +1°C° 0 mm 3 mps 750 mmHg 76%
    12:00 +1°C° 0 mm 3 mps 750 mmHg 75%
    13:00 +1°C° 0 mm 3 mps 750 mmHg 74%
    14:00 +1°C° 0 mm 3 mps 751 mmHg 73%
    15:00 +1°C° 0 mm 3 mps 750 mmHg 74%
    16:00 +1°C° 0 mm 3 mps 750 mmHg 76%
    17:00 0°C° 0 mm 3 mps 750 mmHg 77%
    18:00 0°C° 0 mm 3 mps 750 mmHg 79%
    19:00 -1°C° 0 mm 3 mps 750 mmHg 81%
    20:00 -1°C° 0 mm 2 mps 750 mmHg 82%
    21:00 -1°C° 0 mm 3 mps 749 mmHg 82%
    22:00 -1°C° 0 mm 3 mps 749 mmHg 82%
    23:00 -1°C° 0 mm 3 mps 748 mmHg 82%

    Tomorrow, 21 March, Thursday

    Time Temperature Precipitation Wind Pressure Humidity
    00:00 -1°C° 0.2 mm 3 mps 748 mmHg 84%
    01:00 -1°C° 0.2 mm 3 mps 747 mmHg 86%
    02:00 -2°C° 0.2 mm 4 mps 746 mmHg 88%
    03:00 0°C° 0.5 mm 3 mps 746 mmHg 89%
    04:00 0°C° 0.5 mm 3 mps 746 mmHg 90%
    05:00 0°C° 0.5 mm 3 mps 745 mmHg 92%
    06:00 0°C° 0 mm 3 mps 746 mmHg 90%
    07:00 0°C° 0 mm 4 mps 746 mmHg 88%
    08:00 0°C° 0 mm 4 mps 747 mmHg 86%
    09:00 0°C° 0 mm 4 mps 747 mmHg 83%
    10:00 +1°C° 0 mm 4 mps 747 mmHg 81%
    11:00 +1°C° 0 mm 4 mps 748 mmHg 78%
    12:00 +3°C° 0 mm 4 mps 748 mmHg 78%
    13:00 +3°C° 0 mm 4 mps 748 mmHg 77%
    14:00 +4°C° 0 mm 4 mps 748 mmHg 77%
    15:00 +4°C° 0 mm 3 mps 748 mmHg 79%
    16:00 +4°C° 0 mm 2 mps 748 mmHg 81%
    17:00 +5°C° 0 mm 1 mps 748 mmHg 83%
    18:00 +4°C° 0 mm 1 mps 748 mmHg 84%
    19:00 +3°C° 0 mm 1 mps 748 mmHg 86%
    20:00 +2°C° 0 mm 1 mps 748 mmHg 88%
    21:00 +1°C° 0 mm 2 mps 748 mmHg 89%
    22:00 +1°C° 0 mm 2 mps 747 mmHg 90%
    23:00 +1°C° 0 mm 2 mps 747 mmHg 91%

    Day after tomorrow, 22 March, Friday

    Time Temperature Precipitation Wind Pressure Humidity
    00:00 +1°C° 0.1 mm 2 mps 747 mmHg 92%
    01:00 +2°C° 0.1 mm 2 mps 746 mmHg 93%
    02:00 +2°C° 0.1 mm 2 mps 746 mmHg 95%
    03:00 +1°C° 0.5 mm 3 mps 745 mmHg 95%
    04:00 +2°C° 0.5 mm 3 mps 745 mmHg 96%
    05:00 +2°C° 0.5 mm 3 mps 744 mmHg 96%
    06:00 +3°C° 0.2 mm 3 mps 744 mmHg 95%
    07:00 +3°C° 0.2 mm 4 mps 744 mmHg 94%
    08:00 +4°C° 0.2 mm 4 mps 745 mmHg 92%
    09:00 +4°C° 0 mm 4 mps 745 mmHg 85%
    10:00 +3°C° 0 mm 5 mps 745 mmHg 77%
    11:00 +5°C° 0 mm 5 mps 746 mmHg 69%
    12:00 +5°C° 0 mm 5 mps 746 mmHg 64%
    13:00 +4°C° 0 mm 6 mps 746 mmHg 58%
    14:00 +4°C° 0 mm 6 mps 746 mmHg 53%
    15:00 +5°C° 0 mm 5 mps 746 mmHg 55%
    16:00 +3°C° 0 mm 5 mps 746 mmHg 57%
    17:00 +4°C° 0 mm 4 mps 746 mmHg 58%
    18:00 +1°C° 0 mm 4 mps 747 mmHg 63%
    19:00 0°C° 0 mm 4 mps 747 mmHg 68%
    20:00 0°C° 0 mm 3 mps 748 mmHg 72%
    21:00 -1°C° 0 mm 3 mps 748 mmHg 76%
    22:00 -1°C° 0 mm 3 mps 748 mmHg 79%
    23:00 -2°C° 0 mm 3 mps 748 mmHg 82%

    23 March, Saturday

    Time Temperature Precipitation Wind Pressure Humidity
    00:00 -2°C° 0 mm 2 mps 748 mmHg 85%
    01:00 -3°C° 0 mm 2 mps 748 mmHg 88%
    02:00 -3°C° 0 mm 2 mps 748 mmHg 91%
    03:00 -1°C° 0 mm 1 mps 748 mmHg 91%
    04:00 -1°C° 0 mm 1 mps 748 mmHg 92%
    05:00 -1°C° 0 mm 1 mps 748 mmHg 92%
    06:00 0°C° 0 mm 1 mps 748 mmHg 87%
    07:00 +1°C° 0 mm 1 mps 748 mmHg 83%
    08:00 +2°C° 0 mm 1 mps 747 mmHg 78%
    09:00 +2°C° 0 mm 2 mps 746 mmHg 71%
    10:00 +2°C° 0 mm 3 mps 746 mmHg 65%
    11:00 +4°C° 0 mm 3 mps 745 mmHg 58%
    12:00 +4°C° 0 mm 4 mps 744 mmHg 65%
    13:00 +4°C° 0 mm 4 mps 743 mmHg 73%
    14:00 +4°C° 0 mm 4 mps 742 mmHg 80%
    15:00 +5°C° 0.3 mm 5 mps 741 mmHg 84%
    16:00 +5°C° 0.3 mm 5 mps 740 mmHg 88%
    17:00 +5°C° 0.3 mm 5 mps 740 mmHg 92%
    18:00 +5°C° 0.1 mm 5 mps 740 mmHg 85%
    19:00 +3°C° 0.1 mm 5 mps 740 mmHg 79%
    20:00 +2°C° 0.1 mm 5 mps 741 mmHg 72%
    21:00 +1°C° 0 mm 5 mps 741 mmHg 72%
    22:00 0°C° 0 mm 5 mps 741 mmHg 72%
    23:00 -1°C° 0 mm 4 mps 741 mmHg 72%

    24 March, Sunday

    Time Temperature Precipitation Wind Pressure Humidity
    00:00 -1°C° 0 mm 4 mps 741 mmHg 72%
    01:00 -2°C° 0 mm 4 mps 741 mmHg 73%
    02:00 -2°C° 0 mm 4 mps 741 mmHg 73%
    03:00 -2°C° 0 mm 5 mps 741 mmHg 74%
    04:00 -2°C° 0 mm 5 mps 741 mmHg 74%
    05:00 -2°C° 0 mm 5 mps 741 mmHg 74%
    06:00 -3°C° 0 mm 6 mps 741 mmHg 70%
    07:00 -2°C° 0 mm 7 mps 741 mmHg 67%
    08:00 -2°C° 0 mm 7 mps 741 mmHg 63%
    09:00 -2°C° 0.1 mm 8 mps 741 mmHg 61%
    10:00 -2°C° 0.1 mm 8 mps 741 mmHg 59%
    11:00 -1°C° 0.1 mm 8 mps 741 mmHg 57%
    12:00 -1°C° 0 mm 8 mps 741 mmHg 57%
    13:00 -1°C° 0 mm 7 mps 742 mmHg 56%
    14:00 0°C° 0 mm 7 mps 742 mmHg 55%
    15:00 0°C° 0 mm 7 mps 742 mmHg 51%
    16:00 +1°C° 0 mm 6 mps 742 mmHg 47%
    17:00 +1°C° 0 mm 6 mps 742 mmHg 43%
    18:00 0°C° 0 mm 5 mps 743 mmHg 46%
    19:00 -1°C° 0 mm 5 mps 743 mmHg 48%
    20:00 -2°C° 0 mm 4 mps 743 mmHg 51%
    21:00 -2°C° 0 mm 4 mps 744 mmHg 55%
    22:00 -2°C° 0 mm 3 mps 744 mmHg 59%
    23:00 -2°C° 0 mm 3 mps 744 mmHg 63%

    25 March, Monday

    Time Temperature Precipitation Wind Pressure Humidity
    00:00 -4°C° 0 mm 3 mps 743 mmHg 68%
    01:00 -3°C° 0 mm 2 mps 743 mmHg 73%
    02:00 -3°C° 0 mm 2 mps 743 mmHg 78%
    03:00 -3°C° 0 mm 2 mps 743 mmHg 77%
    04:00 -3°C° 0 mm 2 mps 742 mmHg 77%
    05:00 -3°C° 0 mm 2 mps 741 mmHg 76%
    06:00 -2°C° 0 mm 3 mps 741 mmHg 71%
    07:00 -1°C° 0 mm 3 mps 740 mmHg 67%
    08:00 -1°C° 0 mm 4 mps 740 mmHg 62%
    09:00 0°C° 0 mm 4 mps 739 mmHg 56%
    10:00 +1°C° 0 mm 5 mps 738 mmHg 50%
    11:00 +2°C° 0 mm 5 mps 737 mmHg 44%
    12:00 +2°C° 0 mm 5 mps 736 mmHg 45%
    13:00 +2°C° 0 mm 5 mps 735 mmHg 47%
    14:00 +2°C° 0 mm 6 mps 734 mmHg 49%
    15:00 +2°C° 0.1 mm 5 mps 734 mmHg 53%
    16:00 +2°C° 0.1 mm 5 mps 733 mmHg 57%
    17:00 +1°C° 0.1 mm 4 mps 732 mmHg 61%
    18:00 +1°C° 0.3 mm 4 mps 732 mmHg 65%
    19:00 +2°C° 0.3 mm 3 mps 731 mmHg 70%
    20:00 +1°C° 0.3 mm 3 mps 731 mmHg 75%
    21:00 +1°C° 1 mm 3 mps 730 mmHg 79%
    22:00 0°C° 1 mm 3 mps 730 mmHg 84%
    23:00 0°C° 1 mm 3 mps 730 mmHg 89%
    Show more